Tracking 29969 objects as of 6-Dec-2024
HD Live streaming from Space Station
objects crossing your sky now

IRIDIUM 33 DEB

Track IRIDIUM 33 DEB now!
10-day predictions


NORAD ID: 36011
Int'l Code: 1997-051US
Perigee: 753.2 km
Apogee: 781.6 km
Inclination: 86.3 °
Period: 100.0 minutes
Semi major axis: 7138 km
RCS: 0.0036 m2 (small)
Launch date: September 14, 1997
Source: United States (US)
Launch site: TYURATAM MISSILE AND SPACE COMPLEX (TTMTR)

Note: This is SATELLITE DEBRIS
Your satellite tracking list
Your tracking list is empty




NASA's NSSDC Master Catalog

Two Line Element Set (TLE):
1 36011U 97051US  24341.38390343  .00003057  00000-0  97324-3 0  9993
2 36011  86.3444 194.6219 0019887  10.4818 109.4747 14.39469614591946
Source of the keplerian elements: AFSPC